{"data":{"norad_id":53876,"epoch":"2026-09-20T05:22:32.888064Z","epoch_age_seconds":176338,"freshness":"STALE","line1":"1 53876U 22102B   26263.22399176  .00046465  00000+0  69223-3 0  9993","line2":"2 53876  28.9885 246.8085 0001631 237.8853 122.1600 15.53722186221468","mean_motion":15.53722186,"eccentricity":0.0001631,"inclination_deg":28.9885,"raan_deg":246.8085,"arg_perigee_deg":237.8853,"mean_anomaly_deg":122.16,"bstar":0.00069223,"rev_number":22146,"period_min":92.6806615092,"perigee_km":404.7631509514,"apogee_km":406.97609391163,"semimajor_km":6784.0066224315,"source":"CELESTRAK","updated_at":"2026-09-21T09:00:09.238937Z"}}